Wind_Speed
7 7 6 5 5 5 4 4 4 4 3 2 2 2 3 3 3 3 4 4 3 4 5 6 6 6 6 7 8 8 9 9 9 9 9 9 9 9 9 9 9 9 9
7 7 6 6 5 5 4 3 3 3 2 2 2 2 3 3 3 4 4 5 5 5 6 6 7 7 7 8 8 9 9 9 9 10 10 10 10 10 10 9 10 10 10
7 6 6 5 5 5 5 3 2 2 1 1 1 1 2 3 4 5 5 6 6 6 6 6 7 8 9 9 9 10 10 10 10 10 9 9 9 9 10 9 10 10 11
9 8 7 6 6 5 4 4 3 2 1 1 1 2 3 3 5 5 6 6 6 6 6 7 7 9 9 10 11 11 11 11 11 11 10 10 10 10 10 10 10 11 11
8 8 7 7 6 5 5 4 4 3 2 2 2 2 3 3 5 5 6 6 6 6 6 8 8 9 10 11 12 12 13 13 13 12 12 12 12 12 11 11 12 12 12
7 7 6 6 6 5 5 4 4 3 3 3 3 3 3 4 5 5 6 6 6 6 7 7 9 10 10 11 12 13 14 14 14 13 13 13 12 12 12 12 13 13 13
6 7 6 5 5 5 4 3 3 3 3 4 4 4 4 5 5 6 6 7 7 7 8 8 9 9 10 11 12 13 14 14 14 14 13 13 13 13 13 14 14 13 13
5 6 6 5 4 4 3 4 4 4 4 5 5 5 5 6 6 7 8 8 8 9 9 10 10 10 12 13 13 13 14 14 14 13 13 13 13 13 13 14 14 14 14
4 5 5 5 5 4 4 4 5 5 6 6 6 6 6 6 7 8 8 9 9 10 10 11 12 13 13 14 14 14 14 14 14 15 15 14 14 14 13 14 14 14 15
4 4 5 5 5 4 4 5 6 6 6 7 7 6 7 7 8 8 9 9 10 10 11 12 13 14 14 14 15 15 15 15 16 16 17 16 15 15 15 14 14 14 15
4 4 4 5 5 5 5 6 6 7 8 8 7 7 8 8 8 9 9 10 10 11 12 13 14 15 16 17 17 16 16 16 16 17 16 16 16 16 15 15 15 15 14
5 5 5 5 6 6 7 7 8 8 8 8 8 9 9 9 9 10 10 11 12 13 14 14 15 16 17 18 17 18 18 17 17 17 17 17 18 16 16 16 16 15 15
6 6 6 6 7 7 7 8 8 8 8 8 9 9 10 10 10 11 11 12 13 14 15 16 16 17 18 18 19 19 19 18 18 18 18 19 19 17 17 16 16 16 16
8 7 7 8 8 8 9 9 9 10 10 10 10 10 10 11 12 12 13 14 15 16 16 18 18 19 20 20 20 20 20 19 20 20 20 20 19 18 17 18 17 17 17
9 9 9 9 9 10 11 11 11 12 12 12 12 12 13 13 13 14 15 16 16 17 18 19 20 20 20 20 20 21 21 20 21 21 21 21 21 20 19 19 19 19 19
11 11 11 11 12 12 13 13 14 14 14 14 15 15 15 15 16 17 17 18 19 19 20 20 21 21 21 22 22 22 22 22 22 22 22 23 23 22 21 21 20 20 21
12 13 13 13 14 14 15 16 16 16 16 16 17 17 17 18 18 19 19 20 21 21 21 21 22 22 23 23 24 24 25 24 24 24 25 25 25 24 23 22 22 22 22
13 14 14 14 15 16 17 17 18 18 18 18 18 18 18 19 19 20 21 22 22 22 23 22 23 24 24 24 25 25 26 26 25 25 26 27 26 26 25 24 24 23 22
15 16 16 16 16 17 17 18 19 19 19 20 20 20 20 21 21 22 22 23 23 24 24 25 25 25 26 26 26 27 27 27 26 26 27 27 27 27 27 26 24 23 23
17 17 18 18 18 18 19 19 20 21 21 22 22 22 23 23 23 23 23 24 25 26 26 26 27 27 27 27 27 27 28 28 27 27 27 28 28 27 27 26 25 25 25
19 19 19 20 20 20 21 21 22 22 22 23 23 23 24 25 25 26 26 27 28 27 27 27 28 28 28 28 28 28 29 29 28 28 28 29 28 27 27 26 25 25 25
21 21 21 21 22 22 22 23 23 23 23 24 24 25 25 26 27 28 28 28 28 28 28 28 28 28 28 29 28 28 28 29 29 29 29 29 29 27 26 26 26 26 27
23 23 23 24 24 24 25 25 25 25 25 25 26 27 27 27 28 29 30 30 30 30 29 30 29 29 29 29 29 29 30 31 31 30 30 30 30 29 27 27 27 27 27
24 24 25 25 25 25 26 26 27 27 27 27 27 28 28 29 29 30 31 31 31 31 31 31 30 29 29 29 29 29 29 30 30 29 29 29 30 30 29 28 28 28 28
27 27 27 27 27 27 27 28 28 29 29 29 29 29 30 30 31 32 32 32 32 32 32 31 31 30 29 29 29 29 30 30 30 30 30 29 29 29 29 29 29 29 28
29 29 29 30 29 28 29 29 30 30 31 31 31 32 32 33 33 33 33 33 33 33 33 32 31 31 30 30 31 31 30 30 29 30 30 30 29 29 29 29 30 29 29
Wind_Direction
84 84 83 88 91 91 101 111 121 135 156 178 213 235 249 253 266 281 284 289 286 286 294 298 299 301 304 301 298 295 293 294 291 291 291 286 284 281 281 278 277 279 282
80 84 82 84 91 91 102 107 123 133 157 186 217 252 284 279 286 285 289 292 292 289 292 296 306 311 309 308 303 298 295 295 292 291 288 288 285 283 282 282 283 282 281
71 79 79 79 79 76 81 81 85 96 122 176 202 269 311 312 313 310 304 297 293 294 293 295 301 308 309 309 309 304 298 295 293 295 292 288 286 285 284 285 286 284 284
60 67 69 67 63 64 66 66 68 71 66 35 352 332 331 332 329 331 324 312 304 304 300 296 303 308 307 305 307 302 298 298 295 295 294 289 287 286 286 283 283 283 286
59 60 57 58 58 62 62 62 57 50 35 14 349 327 320 325 326 332 330 325 323 319 312 302 303 307 308 306 306 302 300 299 299 296 292 291 288 286 285 286 286 286 285
58 53 49 50 51 60 66 67 61 44 27 3 343 322 313 317 318 326 327 326 325 326 321 318 312 314 312 310 306 306 305 303 301 298 295 294 293 291 287 288 292 289 288
55 46 38 41 47 51 58 53 47 28 5 346 337 329 324 318 321 319 318 319 319 320 319 319 317 315 312 313 312 311 308 304 304 301 296 294 293 292 292 289 292 292 290
41 35 35 35 35 34 34 16 9 356 341 334 333 326 317 318 318 318 313 312 314 314 314 315 314 311 313 312 313 313 308 306 305 305 300 298 296 292 289 288 288 287 291
30 30 27 24 15 9 6 354 352 348 340 338 340 334 325 319 317 316 313 312 311 310 311 310 312 311 313 316 316 313 310 307 303 303 301 296 295 294 293 291 287 287 288
13 13 5 3 359 352 344 338 333 338 337 333 332 335 334 328 320 315 312 311 308 310 311 310 309 308 309 309 310 310 309 309 305 303 301 296 295 294 293 292 292 292 294
338 341 342 345 347 336 327 325 325 326 328 329 330 327 327 326 325 320 314 310 309 310 311 311 310 307 308 307 307 307 306 303 305 305 303 302 300 299 296 294 294 295 296
313 314 315 321 326 323 320 318 320 321 324 324 322 321 322 322 319 316 316 315 313 309 309 308 309 308 308 308 308 307 305 303 304 303 303 305 302 299 297 294 292 291 293
300 301 306 310 309 311 313 312 314 314 316 317 316 316 316 316 315 315 311 309 311 311 311 309 309 309 308 306 304 304 302 301 304 304 303 302 300 297 296 295 295 292 292
292 293 296 300 300 300 303 305 307 308 307 307 307 308 309 310 311 312 310 307 306 307 308 308 306 305 303 302 302 303 300 299 303 303 303 301 301 297 297 296 296 294 292
286 286 288 289 292 295 297 299 300 300 300 301 302 303 305 304 306 307 307 307 305 306 306 305 304 305 304 303 303 303 301 299 299 299 299 300 300 297 295 294 293 291 290
281 283 286 288 289 289 292 295 295 295 297 297 298 300 302 302 302 302 304 304 303 302 302 301 300 300 303 304 305 302 301 299 296 295 295 297 297 295 292 291 290 290 288
283 282 284 286 288 289 290 291 292 292 293 293 295 297 298 297 296 297 299 300 301 302 301 299 298 299 301 301 301 300 299 298 297 296 295 296 296 294 291 289 289 287 286
286 286 287 286 287 289 290 290 291 290 290 289 290 292 293 293 294 295 296 298 300 302 302 299 298 297 298 298 298 297 297 298 296 297 295 295 295 293 292 291 288 286 284
285 287 288 288 288 288 289 290 289 288 287 288 288 289 291 292 294 296 297 298 300 301 301 299 297 297 296 296 296 296 295 295 295 295 295 293 293 293 293 290 288 286 282
284 286 287 286 287 287 288 288 288 288 287 287 288 288 290 291 292 295 296 299 301 301 301 299 297 296 295 295 295 295 294 293 294 293 294 294 293 293 293 290 288 285 283
285 285 285 284 284 286 287 288 289 289 290 289 288 289 290 291 292 293 295 297 300 301 300 299 298 296 296 295 294 294 293 292 291 290 292 292 293 293 293 290 288 286 284
284 284 285 284 283 284 286 287 288 290 290 289 289 289 291 291 291 292 294 296 298 300 300 300 299 298 297 296 295 295 295 293 292 290 291 292 292 292 291 290 288 286 285
283 283 283 283 284 284 285 286 287 288 289 291 290 289 289 291 291 292 293 294 294 296 298 299 299 299 299 297 296 296 295 295 293 291 291 292 291 290 288 288 287 286 285
282 282 283 284 286 285 285 286 286 286 287 288 289 290 290 291 292 292 294 295 294 294 296 298 300 300 300 299 299 298 297 295 295 295 293 293 292 290 289 287 286 284 283
280 281 283 284 285 286 285 284 285 285 285 286 288 289 289 290 291 292 293 294 294 294 294 296 298 299 299 299 299 298 297 296 295 295 294 292 290 289 288 287 287 283 282
278 279 281 282 284 285 285 283 283 284 285 286 287 287 288 289 289 290 292 292 294 295 295 294 294 296 297 298 299 298 296 296 296 296 295 293 291 290 288 286 286 284 283
Height
5884 5884 5884 5884 5884 5884 5884 5885 5885 5885 5886 5886 5887 5887 5887 5887 5887 5887 5887 5887 5887 5887 5886 5886 5886 5885 5884 5884 5883 5882 5881 5880 5879 5878 5878 5877 5876 5876 5875 5874 5874 5874 5873
5885 5885 5885 5885 5885 5885 5885 5885 5885 5886 5886 5886 5887 5887 5887 5887 5887 5887 5887 5886 5886 5886 5885 5885 5884 5884 5883 5882 5881 5880 5879 5878 5877 5877 5876 5875 5874 5874 5873 5872 5872 5871 5871
5886 5886 5886 5886 5886 5885 5885 5885 5886 5886 5886 5886 5886 5886 5887 5887 5887 5886 5886 5885 5885 5884 5884 5883 5883 5882 5881 5880 5879 5878 5877 5876 5875 5874 5874 5873 5872 5872 5871 5870 5870 5869 5868
5887 5887 5887 5887 5886 5886 5886 5886 5886 5886 5886 5886 5886 5886 5886 5886 5886 5885 5885 5884 5884 5883 5882 5882 5881 5881 5879 5878 5878 5876 5875 5874 5873 5872 5871 5871 5870 5869 5868 5867 5867 5866 5866
5888 5888 5888 5887 5887 5886 5886 5886 5886 5886 5886 5885 5885 5885 5885 5885 5885 5885 5884 5883 5882 5882 5881 5880 5880 5879 5878 5877 5876 5874 5873 5872 5871 5870 5869 5868 5867 5867 5866 5865 5864 5863 5863
5890 5889 5888 5888 5887 5887 5887 5886 5886 5886 5886 5885 5885 5885 5885 5884 5884 5884 5883 5882 5881 5881 5880 5879 5878 5877 5876 5875 5873 5872 5871 5869 5868 5867 5866 5865 5864 5864 5863 5862 5861 5860 5859
5890 5890 5889 5888 5888 5887 5887 5886 5886 5886 5885 5885 5884 5884 5884 5883 5883 5882 5882 5881 5880 5880 5879 5878 5876 5875 5874 5873 5871 5870 5868 5867 5866 5864 5863 5863 5862 5861 5860 5859 5858 5857 5856
5891 5890 5889 5889 5888 5887 5887 5886 5886 5885 5885 5884 5883 5883 5883 5883 5881 5881 5880 5879 5879 5878 5877 5876 5875 5873 5872 5871 5869 5868 5866 5865 5863 5862 5861 5859 5858 5857 5856 5855 5854 5854 5853
5891 5890 5889 5889 5888 5887 5887 5886 5885 5885 5884 5883 5882 5882 5881 5881 5880 5879 5878 5878 5877 5876 5875 5874 5873 5871 5870 5868 5867 5865 5863 5862 5860 5859 5858 5856 5855 5854 5853 5852 5851 5850 5849
5891 5890 5889 5888 5887 5887 5886 5885 5884 5884 5883 5882 5881 5880 5880 5879 5879 5878 5877 5876 5875 5874 5873 5872 5870 5869 5867 5866 5864 5862 5861 5859 5857 5856 5854 5853 5851 5850 5849 5848 5847 5846 5845
5891 5890 5889 5888 5887 5886 5885 5885 5884 5883 5882 5881 5880 5879 5878 5877 5877 5876 5875 5874 5873 5872 5870 5869 5867 5866 5865 5863 5861 5859 5857 5855 5854 5852 5850 5849 5847 5846 5845 5844 5843 5842 5841
5890 5889 5889 5888 5887 5886 5885 5884 5883 5882 5881 5880 5879 5878 5877 5876 5875 5874 5873 5872 5870 5869 5867 5866 5864 5863 5861 5859 5858 5856 5854 5852 5850 5849 5847 5845 5843 5842 5841 5840 5839 5838 5837
5889 5888 5887 5886 5886 5885 5884 5883 5882 5881 5879 5878 5877 5876 5875 5874 5873 5872 5870 5869 5868 5866 5865 5863 5861 5860 5858 5856 5854 5852 5850 5848 5846 5845 5843 5841 5839 5838 5837 5836 5835 5834 5833
5887 5886 5885 5885 5884 5883 5882 5881 5880 5879 5878 5877 5876 5875 5874 5872 5871 5869 5868 5866 5865 5864 5862 5860 5858 5856 5854 5852 5850 5848 5845 5844 5842 5840 5838 5836 5835 5833 5832 5831 5830 5829 5828
5885 5884 5883 5882 5882 5881 5880 5879 5878 5877 5876 5875 5873 5872 5871 5870 5868 5866 5865 5863 5861 5860 5858 5856 5854 5852 5850 5848 5846 5843 5841 5839 5837 5835 5833 5832 5830 5828 5827 5826 5825 5824 5822
5882 5881 5881 5880 5879 5878 5877 5876 5875 5874 5873 5872 5870 5869 5868 5866 5865 5863 5861 5859 5857 5855 5854 5852 5850 5847 5845 5843 5841 5838 5836 5834 5831 5829 5828 5826 5824 5822 5821 5820 5819 5817 5816
5879 5878 5877 5876 5875 5874 5873 5872 5871 5870 5869 5868 5866 5865 5864 5862 5860 5859 5857 5855 5853 5850 5848 5847 5845 5843 5840 5837 5835 5832 5830 5828 5825 5823 5822 5820 5818 5816 5815 5813 5812 5811 5810
5875 5874 5873 5872 5871 5870 5869 5868 5867 5865 5864 5863 5862 5860 5859 5857 5855 5854 5852 5850 5847 5845 5843 5841 5839 5836 5834 5831 5829 5826 5824 5821 5819 5817 5815 5813 5811 5809 5808 5807 5805 5804 5803
5871 5870 5869 5868 5867 5865 5864 5863 5862 5860 5859 5858 5857 5855 5854 5852 5850 5848 5846 5844 5842 5839 5836 5834 5832 5829 5827 5824 5822 5819 5817 5814 5812 5810 5808 5806 5804 5803 5801 5799 5798 5797 5796
5866 5865 5864 5863 5862 5860 5859 5858 5857 5855 5854 5853 5851 5849 5848 5846 5844 5842 5840 5838 5836 5833 5830 5827 5825 5822 5820 5817 5815 5812 5810 5807 5805 5803 5801 5799 5797 5795 5794 5792 5791 5790 5788
5861 5860 5858 5857 5856 5855 5853 5852 5851 5849 5848 5847 5845 5843 5842 5840 5838 5836 5834 5832 5829 5827 5824 5821 5818 5815 5812 5810 5808 5805 5803 5800 5798 5796 5794 5792 5790 5788 5786 5784 5783 5781 5780
5855 5854 5852 5851 5850 5849 5847 5846 5844 5843 5841 5840 5838 5837 5835 5833 5831 5829 5827 5825 5822 5820 5817 5814 5811 5808 5805 5802 5800 5797 5795 5793 5791 5789 5786 5784 5782 5780 5779 5777 5775 5773 5772
5848 5847 5846 5844 5843 5842 5840 5839 5837 5836 5834 5833 5831 5830 5828 5826 5824 5822 5819 5817 5815 5812 5810 5807 5804 5800 5797 5795 5792 5790 5787 5785 5783 5780 5778 5776 5774 5772 5771 5769 5767 5766 5764
5840 5839 5838 5837 5835 5834 5833 5831 5830 5828 5827 5826 5824 5822 5820 5818 5816 5814 5811 5809 5806 5804 5802 5799 5796 5792 5789 5787 5784 5782 5779 5777 5775 5772 5770 5768 5766 5764 5762 5761 5759 5757 5756
5832 5831 5830 5829 5828 5826 5825 5823 5822 5820 5819 5818 5816 5814 5812 5810 5808 5805 5803 5801 5798 5796 5793 5790 5787 5784 5782 5779 5776 5774 5771 5768 5766 5764 5762 5760 5758 5755 5754 5752 5750 5748 5747
5824 5823 5822 5821 5819 5817 5816 5815 5813 5812 5811 5809 5807 5805 5803 5801 5799 5796 5794 5792 5789 5787 5784 5782 5779 5776 5773 5771 5768 5766 5763 5760 5758 5756 5753 5751 5749 5747 5745 5743 5741 5739 5738